Location: Unspecified
(33.9239°N, 118.0544°W)
Time: 00:04:19
(UTC-07:00)

Resurs 1-4 Rocket - Visible Passes

Search period start: 19 April 2014 00:00
Search period end: 29 April 2014 00:00
Orbit: 800 x 815 km, 98.3° (Epoch: 17 April)

Date Brightness Start Highest point End Pass type
(mag) Time Alt. Az. Time Alt. Az. Time Alt. Az.
19 Apr 4.2 04:20:10 10° NE 04:24:21 24° E 04:28:30 10° SSE visible
20 Apr 4.8 03:57:20 10° ENE 03:59:45 13° E 04:02:09 10° ESE visible
20 Apr 2.2 05:34:45 10° N 05:39:56 60° WNW 05:45:06 10° SSW visible
21 Apr 2.2 05:10:18 10° NNE 05:15:35 78° ESE 05:20:51 10° S visible
22 Apr 3.2 04:46:08 10° NNE 04:51:10 44° E 04:56:10 10° S visible
23 Apr 4.1 04:22:21 10° NE 04:26:39 25° E 04:30:57 10° SSE visible
24 Apr 4.8 03:59:20 10° ENE 04:02:04 14° E 04:04:48 10° SE visible
24 Apr 2.3 05:37:04 10° N 05:42:13 56° WNW 05:47:21 10° SSW visible
25 Apr 2.2 05:12:35 10° NNE 05:17:52 84° ESE 05:23:09 10° SSW visible
26 Apr 3.1 04:48:22 10° NNE 04:53:27 47° E 04:58:31 10° S visible
27 Apr 4.0 04:24:32 10° NE 04:28:58 27° E 04:33:23 10° SSE visible
28 Apr 4.7 04:01:22 10° ENE 04:04:23 15° E 04:07:24 10° SE visible
